Location: Burla
(50.9568°N, 10.4983°E)
Time: 09:46:22
(UTC+00:00)

Helios 1A Rocket - Pass Details

Date: 18 January 2026
Orbit: 425 x 435 km, 98.3° (Epoch: 16 February)

Event Time Altitude Azimuth Distance (km) Brightness Sun altitude
Rises 05:27:33 0° 179° (S) 2,441 6.3 -15.9°
Reaches altitude 10° 05:29:37 10° 186° (S) 1,574 5.2 -15.6°
Maximum altitude 05:32:52 43° 259° (W) 639 2.7 -15.1°
Enters shadow 05:34:19 26° 315° (NW) 913 3.5 -14.9°
